This is the latest recevied weather packets stored in our database for station/object KC1BRV. If no packets are shown the sender has not sent any weather packets the latest 10 day(s).
| Time | Temp. | Humidity | Pressure | Rain* | Wind** | Luminosity | Snow |
|---|---|---|---|---|---|---|---|
| 1788024388 | 23.89° C | 49% | 1023.4 hPa | 0 mm | - | 690 W/m² | - |
| 1788024083 | 23.89° C | 51% | 1023.6 hPa | 0 mm | - | 696 W/m² | - |
| 1788023777 | 23.89° C | 49% | 1023.6 hPa | 0 mm | - | 701 W/m² | - |
| 1788023473 | 24.44° C | 49% | 1023.4 hPa | 0 mm | - | 700 W/m² | - |
| 1788023168 | 23.89° C | 51% | 1023.6 hPa | 0 mm | - | 703 W/m² | - |
| 1788022863 | 23.89° C | 49% | 1023.6 hPa | 0 mm | - | 711 W/m² | - |
| 1788022559 | 23.89° C | 49% | 1023.5 hPa | 0 mm | - | 715 W/m² | - |
| 1788022255 | 23.89° C | 48% | 1023.9 hPa | 0 mm | - | 382 W/m² | - |
| 1788021954 | 24.44° C | 50% | 1023.7 hPa | 0 mm | - | 295 W/m² | - |
| 1788021654 | 23.89° C | 50% | 1023.6 hPa | 0 mm | - | 718 W/m² | - |
| 1788021351 | 23.89° C | 49% | 1023.8 hPa | 0 mm | - | 713 W/m² | - |
| 1788021047 | 23.89° C | 49% | 1023.8 hPa | 0 mm | - | 718 W/m² | - |
| 1788020742 | 23.89° C | 52% | 1023.6 hPa | 0 mm | - | 720 W/m² | - |
| 1788020437 | 24.44° C | 50% | 1023.8 hPa | 0 mm | - | 703 W/m² | - |
| 1788020134 | 23.89° C | 50% | 1023.8 hPa | 0 mm | - | 700 W/m² | - |
| 1788019834 | 23.89° C | 50% | 1023.8 hPa | 0 mm | - | 678 W/m² | - |
| 1788019533 | 23.89° C | 51% | 1023.8 hPa | 0 mm | - | 691 W/m² | - |
| 1788019233 | 23.89° C | 51% | 1023.7 hPa | 0 mm | - | 689 W/m² | - |
| 1788018931 | 23.89° C | 50% | 1023.7 hPa | 0 mm | - | 685 W/m² | - |
| 1788018627 | 23.33° C | 52% | 1024 hPa | 0 mm | - | 679 W/m² | - |
| 1788018326 | 22.78° C | 54% | 1023.9 hPa | 0 mm | - | 676 W/m² | - |
| 1788018021 | 23.33° C | 54% | 1024.2 hPa | 0 mm | - | 671 W/m² | - |
| 1788017718 | 22.78° C | 52% | 1024 hPa | 0 mm | - | 662 W/m² | - |
| 1788017414 | 22.78° C | 52% | 1024 hPa | 0 mm | - | 657 W/m² | - |
| 1788017111 | 22.78° C | 53% | 1024 hPa | 0 mm | - | 651 W/m² | - |
* Rain latest hour (hover to see other rain measurements)
** Current wind speed in m/s (hover to see current wind gust speed)